Dauntless Aviation
Airports South America Uruguay

Hospital Policial

Montevideo, URUGUAY

Airport Info
Suggest Updated Information for this Airport

Location

Latitude / Longitude: 34°52'4"S / 56°9'6"W
  34°52.068'S / 56°9.114'W
  -34.8678 / -56.1519
Satellite photo at:
Airport distance calculator
From:
Weather Reports

METAR

SUMU
8.1nm NE
SUMU 310400Z 33002KT 0100 R19/0500 R24/0325 FG VV002 11/11 Q1012 NOSIG

TAF

SUAA
7.8nm NW
TAF SUAA 302330Z 3100/3124 15005KT 3000 BR BKN003 BKN015 TX16/3118Z TN07/3110Z TEMPO 3100/3112 0400 FG OVC001 BECMG 3111/3113 27010KT 9999 BKN015
SUMU
8.1nm NE
TAF SUMU 302330Z 3100/3124 15005KT 3000 BR BKN003 BKN015 TX16/3118Z TN07/3110Z TEMPO 3100/3112 0400 FG OVC001 BECMG 3111/3113 27010KT 9999 BKN015
Safelog

 

Dauntless Aviation

© 2007-2016 Dauntless Aviation, all rights reserved
Information provided via PilotNav comes from a variety of official and unofficial data sources. As errors are possible, do not use PilotNav for primary flight planning purposes. Verify any information that you receive via PilotNav with current and canonical charts and other official documents. The material in this database is subject to database copyrights held by Dauntless Aviation and may not be copied without the express permission of Dauntless Aviation - licenses for use of part of all of this data are available for purchase; enquire via the Dauntless Aviation helpdesk. A number of mechanisms and markers exist in the database to protect against and identify infringement / copyright. Automated queries against this website are stictly prohibited, and all activity is logged and analyzed.